Location: Buckland
(65.9785°N, 161.1281°W)
Time: 21:36:05
(UTC+00:00)

SPROUT - Pass Details

Date: 19 January 2021
Orbit: 597 x 610 km, 97.9° (Epoch: 07 March)

Event Time Altitude Azimuth Distance (km) Brightness Sun altitude
Exits shadow 04:02:57 - 17° (NNE) 2,238 ? -13.3°
Reaches altitude 10° 04:04:07 10° 5° (N) 1,978 ? -13.4°
Maximum altitude 04:06:00 13° 339° (NNW) 1,798 ? -13.6°
Drops below altitude 10° 04:07:54 10° 312° (NW) 1,978 ? -13.8°
Sets 04:11:12 0° 285° (WNW) 2,884 ? -14.1°
